GW4922 Weather Reports


time (UTC)temp
F
wind
direction
speed
knots
gust
knots
rain 1hr
in
rain 24hr
in
rain mn
in
humidity
%
barometer
mb
20260507014819 0 0.0 0.0 0.00 0.00 0.00 1010.1
20260507014315 0 0.0 0.0 0.00 0.00 0.00 1009.9
20260507013812 0 0.0 0.0 0.00 0.00 0.00 1010.1
20260507013309 80 151 1.7 1.7 0.00 0.00 0.00 88 1009.7
20260507012807 80 151 1.7 1.7 0.00 0.00 0.00 88 1009.9
20260507012305 80 151 1.7 1.7 0.00 0.00 0.00 88 1009.7
20260507011800 80 151 1.7 1.7 0.00 0.00 0.00 88 1009.8
20260507011256 80 151 1.7 1.7 0.00 0.00 0.00 88 1009.6
20260507010756 80 151 1.7 1.7 0.00 0.00 0.00 88 1009.8
20260507010252 80 151 1.7 1.7 0.00 0.00 0.00 88 1009.7
20260507005750 80 151 1.7 1.7 0.00 0.00 0.00 88 1009.6
20260507005246 80 151 1.7 1.7 0.00 0.00 0.00 88 1009.4
20260507004742 80 151 1.7 1.7 0.00 0.00 0.00 88 1009.2
20260507004240 80 151 1.7 1.7 0.00 0.00 0.00 88 1009.1
20260507003736 80 151 1.7 1.7 0.00 0.00 0.00 88 1009.4
20260507003232 81 170 2.6 3.5 0.00 0.00 0.00 87 1009.2
20260507002728 81 170 2.6 3.5 0.00 0.00 0.00 87 1009.2
20260507002224 81 170 2.6 3.5 0.00 0.00 0.00 87 1009.2
20260507001721 81 170 2.6 3.5 0.00 0.00 0.00 87 1009.1
20260507001218 81 170 2.6 3.5 0.00 0.00 0.00 87 1009.3
20260507000714 81 166 1.7 2.6 0.00 0.00 0.00 87 1009.0
20260507000212 81 158 3.5 3.5 0.00 0.00 0.00 86 1008.7
20260506235708 81 153 2.6 3.5 0.00 0.00 0.00 86 1008.9
20260506235203 81 159 0.9 1.7 0.00 0.00 0.00 86 1008.9
20260506234700 82 162 2.6 3.5 0.00 0.00 0.00 86 1009.2
20260506234157 82 165 2.6 2.6 0.00 0.00 0.00 86 1009.0
20260506233654 82 147 1.7 1.7 0.00 0.00 0.00 86 1008.7
20260506233151 82 147 1.7 1.7 0.00 0.00 0.00 86 1008.9
20260506232647 82 151 5.2 7.0 0.00 0.00 0.00 86 1008.7
20260506232142 82 152 2.6 5.2 0.00 0.00 0.00 86 1008.5
20260506231640 82 152 3.5 3.5 0.00 0.00 0.00 85 1008.5
20260506231139 0 0.0 0.0 0.00 0.00 0.00 1008.5
20260506230635 0 0.0 0.0 0.00 0.00 0.00 1008.6
20260506230132 0 0.0 0.0 0.00 0.00 0.00 1008.4
20260506225628 0 0.0 0.0 0.00 0.00 0.00 1008.5
20260506225125 0 0.0 0.0 0.00 0.00 0.00 1008.5
20260506224622 0 0.0 0.0 0.00 0.00 0.00 1008.5
20260506224118 82 167 3.5 3.5 0.00 0.00 0.00 84 1008.5
20260506223614 82 167 3.5 3.5 0.00 0.00 0.00 84 1008.7
20260506223110 82 167 3.5 3.5 0.00 0.00 0.00 84 1008.4
20260506222608 82 167 3.5 3.5 0.00 0.00 0.00 84 1008.5
20260506222104 82 167 3.5 3.5 0.00 0.00 0.00 84 1008.6
20260506221602 82 167 3.5 3.5 0.00 0.00 0.00 84 1008.7
20260506221100 82 167 3.5 3.5 0.00 0.00 0.00 84 1008.7
20260506220555 82 167 3.5 3.5 0.00 0.00 0.00 84 1008.5
20260506220051 82 167 3.5 3.5 0.00 0.00 0.00 84 1008.7
20260506215548 82 167 3.5 3.5 0.00 0.00 0.00 84 1008.6
20260506215043 82 167 3.5 3.5 0.00 0.00 0.00 84 1008.6
20260506214541 82 167 3.5 3.5 0.00 0.00 0.00 84 1008.7
20260506214038 83 177 6.1 7.0 0.00 0.00 0.00 82 1008.6
20260506213536 84 147 7.0 9.6 0.00 0.00 0.00 80 1008.5
20260506213033 84 171 3.5 5.2 0.00 0.00 0.00 79 1008.5
20260506212530 85 162 6.1 7.0 0.00 0.00 0.00 78 1008.6
20260506212024 86 159 2.6 5.2 0.00 0.00 0.00 78 1008.7
20260506211521 85 161 4.3 6.1 0.00 0.00 0.00 79 1008.5
20260506211018 85 161 4.3 6.1 0.00 0.00 0.00 79 1008.6
20260506210514 85 146 2.6 2.6 0.00 0.00 0.00 79 1008.5
20260506210011 85 147 4.3 5.2 0.00 0.00 0.00 78 1008.6
20260506205508 85 183 2.6 6.1 0.00 0.00 0.00 78 1008.6
20260506205003 86 169 4.3 7.8 0.00 0.00 0.00 77 1008.5
20260506204502 86 165 3.5 7.8 0.00 0.00 0.00 77 1008.8
20260506203958 86 187 4.3 6.1 0.00 0.00 0.00 78 1008.5
20260506203456 86 173 4.3 6.1 0.00 0.00 0.00 78 1008.7
20260506202953 86 167 5.2 7.8 0.00 0.00 0.00 77 1008.8
20260506202450 86 161 5.2 6.1 0.00 0.00 0.00 79 1008.7
20260506201946 86 147 4.3 6.1 0.00 0.00 0.00 79 1008.9
20260506201444 86 167 5.2 8.7 0.00 0.00 0.00 79 1008.9
20260506200940 84 156 4.3 5.2 0.00 0.00 0.00 80 1008.9
20260506200437 85 156 5.2 7.0 0.00 0.00 0.00 80 1009.0
20260506195933 85 171 2.6 3.5 0.00 0.00 0.00 80 1009.1
20260506195430 85 183 5.2 7.8 0.00 0.00 0.00 80 1009.2
20260506194927 84 176 3.5 7.0 0.00 0.00 0.00 83 1009.2
20260506194424 83 149 7.0 8.7 0.00 0.00 0.00 83 1009.2
20260506193921 84 152 6.1 7.8 0.00 0.00 0.00 82 1009.4
20260506193418 84 186 6.1 8.7 0.00 0.00 0.00 81 1009.2
20260506192914 84 181 6.1 7.0 0.00 0.00 0.00 82 1009.3
20260506192411 84 155 5.2 7.0 0.00 0.00 0.00 83 1009.4
20260506191908 84 158 4.3 7.0 0.00 0.00 0.00 83 1009.6
20260506191404 84 148 3.5 6.1 0.00 0.00 0.00 83 1009.6
20260506190902 83 159 7.0 7.8 0.00 0.00 0.00 84 1009.7
20260506190358 83 156 4.3 6.1 0.00 0.00 0.00 85 1009.7
20260506185855 82 171 2.6 5.2 0.00 0.00 0.00 86 1009.9
20260506185352 82 147 4.3 6.1 0.00 0.00 0.00 88 1009.9
20260506184849 81 160 0.9 5.2 0.00 0.00 0.00 89 1010.2
20260506184346 81 132 2.6 3.5 0.00 0.00 0.00 89 1010.2
20260506183843 81 142 2.6 3.5 0.00 0.00 0.00 88 1010.3
20260506183338 82 114 4.3 5.2 0.00 0.00 0.00 85 1010.2
20260506182836 82 165 4.3 6.1 0.00 0.00 0.00 85 1010.3
20260506182333 82 158 4.3 5.2 0.00 0.00 0.00 85 1010.2
20260506181831 82 165 2.6 2.6 0.00 0.00 0.00 84 1010.4
20260506181328 82 167 3.5 3.5 0.00 0.00 0.00 83 1010.2
20260506180825 82 167 3.5 3.5 0.00 0.00 0.00 83 1010.3
20260506180321 82 140 3.5 5.2 0.00 0.00 0.00 84 1010.4
20260506175817 82 140 3.5 5.2 0.00 0.00 0.00 84 1010.6
20260506175315 82 175 1.7 2.6 0.00 0.00 0.00 84 1010.7
20260506174812 82 158 2.6 2.6 0.00 0.00 0.00 83 1010.9
20260506174309 83 177 4.3 5.2 0.00 0.00 0.00 84 1010.5
20260506173806 83 177 4.3 5.2 0.00 0.00 0.00 84 1010.7
20260506173303 82 125 2.6 2.6 0.00 0.00 0.00 86 1010.8
20260506172800 82 125 2.6 2.6 0.00 0.00 0.00 86 1010.8
20260506172256 82 125 2.6 2.6 0.00 0.00 0.00 86 1010.8
20260506171754 82 125 2.6 2.6 0.00 0.00 0.00 86 1010.9
20260506171251 81 173 0.9 1.7 0.00 0.00 0.00 87 1011.0
20260506170749 81 144 4.3 5.2 0.00 0.00 0.00 87 1010.8
20260506170245 81 167 2.6 5.2 0.00 0.00 0.00 88 1010.7
20260506165744 81 178 2.6 5.2 0.00 0.00 0.00 88 1010.9
20260506165240 80 173 1.7 1.7 0.00 0.00 0.00 89 1011.0
20260506164738 80 168 2.6 5.2 0.00 0.00 0.00 89 1010.9
20260506164234 80 134 3.5 6.1 0.00 0.00 0.00 89 1010.8
20260506163731 80 114 5.2 6.1 0.00 0.00 0.00 91 1010.6
20260506163226 80 114 5.2 6.1 0.00 0.00 0.00 91 1010.7
20260506162722 80 163 3.5 3.5 0.00 0.00 0.00 92 1010.7
20260506162220 80 136 4.3 7.0 0.00 0.00 0.00 91 1010.5
20260506161717 80 65 5.2 7.0 0.00 0.00 0.00 92 1010.5
20260506161214 78 86 1.7 1.7 0.00 0.00 0.00 95 1010.8
20260506160712 78 86 1.7 1.7 0.00 0.00 0.00 95 1010.6
20260506160208 78 86 1.7 1.7 0.00 0.00 0.00 95 1010.6
20260506155707 78 86 1.7 1.7 0.00 0.00 0.00 95 1010.6
20260506155204 77 160 1.7 1.7 0.00 0.00 0.00 96 1010.5
20260506153305 77 160 1.7 1.7 0.00 0.00 0.00 96 1010.3
20260506152802 77 160 1.7 1.7 0.00 0.00 0.00 96 1010.6
20260506152300 77 160 1.7 1.7 0.00 0.00 0.00 96 1010.3
20260506151758 77 160 1.7 1.7 0.00 0.00 0.00 96 1010.3
20260506151255 77 160 1.7 1.7 0.00 0.00 0.00 96 1010.4
20260506150751 77 163 4.3 5.2 0.00 0.00 0.00 96 1010.2
20260506150249 77 163 4.3 5.2 0.00 0.00 0.00 96 1010.1
20260506145745 77 163 4.3 5.2 0.00 0.00 0.00 96 1010.1
20260506145241 77 163 4.3 5.2 0.00 0.00 0.00 96 1009.7
20260506144739 77 163 4.3 5.2 0.00 0.00 0.00 96 1009.7
20260506144236 77 163 4.3 5.2 0.00 0.00 0.00 96 1009.8
20260506143734 77 132 0.9 3.5 0.00 0.00 0.00 96 1009.4
20260506143231 77 82 0.0 3.5 0.00 0.00 0.00 96 1009.5
20260506142730 76 86 1.7 2.6 0.00 0.00 0.00 96 1009.7
20260506142227 76 86 1.7 2.6 0.00 0.00 0.00 96 1009.6
20260506141725 76 86 1.7 2.6 0.00 0.00 0.00 96 1009.8
20260506141223 76 119 1.7 1.7 0.00 0.00 0.00 96 1009.9
20260506140720 76 119 0.9 1.7 0.00 0.00 0.00 96 1009.9
20260506140217 76 130 0.0 1.7 0.00 0.00 0.00 96 1009.8
20260506135714 76 152 0.9 2.6 0.00 0.00 0.00 96 1009.7
20260506135210 76 81 2.6 2.6 0.00 0.00 0.00 96 1009.7
20260506134707 76 132 0.0 1.7 0.00 0.00 0.00 96 1009.9
20260506134203 76 129 0.0 0.0 0.00 0.00 0.00 96 1009.9
20260506133701 76 154 0.0 0.0 0.00 0.00 0.00 96 1009.7
20260506133157 76 143 0.0 0.0 0.00 0.00 0.00 96 1009.6
20260506132655 76 154 0.0 0.0 0.00 0.00 0.00 96 1009.6
20260506132151 76 61 0.9 1.7 0.00 0.00 0.00 96 1009.7
20260506131649 76 117 0.9 1.7 0.00 0.00 0.00 96 1009.9
20260506131145 76 149 0.0 0.9 0.00 0.00 0.00 96 1009.8
20260506130642 76 155 0.0 0.9 0.00 0.00 0.00 96 1009.9
20260506130139 75 172 0.9 1.7 0.00 0.00 0.00 96 1009.7
20260506125637 75 135 0.0 0.0 0.00 0.00 0.00 96 1009.9
20260506125134 75 156 0.0 0.0 0.00 0.00 0.00 96 1009.8
20260506124633 75 163 0.0 0.0 0.00 0.00 0.00 96 1009.6
20260506124130 75 162 0.0 0.0 0.00 0.00 0.00 96 1009.8
20260506123627 74 149 0.9 0.9 0.00 0.00 0.00 96 1009.8
20260506123126 74 149 0.0 0.9 0.00 0.00 0.00 96 1009.6
20260506122622 74 165 0.0 0.0 0.00 0.00 0.00 96 1009.8
20260506122120 74 170 0.0 0.0 0.00 0.00 0.00 96 1009.6
20260506121618 74 170 0.0 0.0 0.00 0.00 0.00 96 1009.7
20260506121114 74 171 0.0 0.0 0.00 0.00 0.00 96 1009.5
20260506120612 74 171 0.0 0.0 0.00 0.00 0.00 96 1009.7
20260506120109 74 171 0.0 0.0 0.00 0.00 0.00 96 1009.8
20260506115608 74 171 0.0 0.0 0.00 0.00 0.00 96 1009.6
20260506115105 74 166 0.0 0.0 0.00 0.00 0.00 96 1009.5
20260506114602 74 166 0.0 0.0 0.00 0.00 0.00 96 1009.3
20260506114100 74 166 0.0 0.0 0.00 0.00 0.00 96 1009.4
20260506113558 74 165 0.0 0.0 0.00 0.00 0.00 96 1009.4
20260506113055 74 160 0.0 0.0 0.00 0.00 0.00 96 1009.2
20260506112551 74 160 0.0 0.0 0.00 0.00 0.00 95 1009.0
20260506112049 74 160 0.0 0.0 0.00 0.00 0.00 95 1009.1
20260506111547 74 161 0.0 0.0 0.00 0.00 0.00 95 1008.9
20260506111044 74 151 0.0 0.0 0.00 0.00 0.00 95 1009.0
20260506110541 74 157 0.0 0.0 0.00 0.00 0.00 95 1009.0
20260506110039 74 149 0.0 0.0 0.00 0.00 0.00 95 1008.9
20260506105534 74 140 0.0 0.9 0.00 0.00 0.00 95 1008.9
20260506105032 74 157 0.0 0.0 0.00 0.00 0.00 95 1009.1
20260506104530 74 114 0.9 0.9 0.00 0.00 0.00 95 1008.8
20260506104028 74 147 0.0 0.9 0.00 0.00 0.00 95 1008.9
20260506103525 74 161 0.0 0.0 0.00 0.00 0.00 95 1008.9
20260506103021 74 161 0.0 0.0 0.00 0.00 0.00 95 1008.9
20260506102520 74 161 0.0 0.0 0.00 0.00 0.00 95 1008.9
20260506102017 73 176 0.0 0.0 0.00 0.00 0.00 95 1008.8
20260506101513 73 177 0.0 0.0 0.00 0.00 0.00 95 1008.7
20260506101010 73 172 0.0 0.0 0.00 0.00 0.00 95 1008.9
20260506100509 73 172 0.0 0.0 0.00 0.00 0.00 95 1008.7
20260506100007 73 173 0.0 0.0 0.00 0.00 0.00 95 1008.9
20260506095505 73 175 0.0 0.0 0.00 0.00 0.00 95 1008.6
20260506095000 72 162 0.0 0.0 0.00 0.00 0.00 95 1008.7
20260506094459 72 162 0.0 0.0 0.00 0.00 0.00 95 1008.6
20260506093956 73 162 0.0 0.0 0.00 0.00 0.00 95 1008.7
20260506093454 73 162 0.0 0.0 0.00 0.00 0.00 94 1008.6
20260506092952 73 162 0.0 0.0 0.00 0.00 0.00 94 1008.4
20260506092449 73 162 0.0 0.0 0.00 0.00 0.00 94 1008.6
20260506091946 74 161 0.0 0.0 0.00 0.00 0.00 94 1008.4
20260506091444 74 161 0.0 0.0 0.00 0.00 0.00 94 1008.4
20260506090941 74 141 1.7 1.7 0.00 0.00 0.00 94 1008.6
20260506090439 74 141 1.7 1.7 0.00 0.00 0.00 94 1008.6
20260506085935 74 141 1.7 1.7 0.00 0.00 0.00 94 1008.5
20260506085432 74 164 0.0 0.9 0.00 0.00 0.00 94 1008.3
20260506084928 75 135 1.7 1.7 0.00 0.00 0.00 94 1008.5
20260506084425 75 162 0.9 1.7 0.00 0.00 0.00 94 1008.7
20260506083921 75 152 1.7 1.7 0.00 0.00 0.00 94 1008.7
20260506083419 75 157 1.7 1.7 0.00 0.00 0.00 94 1008.6
20260506082916 75 136 2.6 3.5 0.00 0.00 0.00 94 1008.7
20260506082413 75 156 2.6 3.5 0.00 0.00 0.00 93 1008.6
20260506081908 75 115 2.6 3.5 0.00 0.00 0.00 93 1008.8
20260506081407 75 120 2.6 2.6 0.00 0.00 0.00 93 1008.9
20260506080904 75 162 1.7 2.6 0.00 0.00 0.00 93 1008.8
20260506080401 75 140 2.6 3.5 0.00 0.00 0.00 93 1008.9
20260506073345 76 145 5.2 5.2 0.00 0.00 0.00 92 1009.2
20260506072841 76 156 3.5 5.2 0.00 0.00 0.00 92 1009.6
20260506072339 76 130 3.5 3.5 0.00 0.00 0.00 92 1009.5
20260506071837 76 163 4.3 6.1 0.00 0.00 0.00 91 1009.5
20260506071335 77 149 3.5 6.1 0.00 0.00 0.00 91 1009.5
20260506070831 77 158 2.6 2.6 0.00 0.00 0.00 91 1009.5
20260506070328 77 165 3.5 3.5 0.00 0.00 0.00 91 1009.6
20260506062306 77 147 6.1 7.0 0.00 0.00 0.00 90 1009.8
20260506061801 77 174 5.2 6.1 0.00 0.00 0.00 90 1009.8
20260506061258 77 140 2.6 7.0 0.00 0.00 0.00 90 1009.8
20260506060757 77 165 3.5 5.2 0.00 0.00 0.00 90 1009.7
20260506060254 77 139 3.5 3.5 0.00 0.00 0.00 90 1009.6
20260506051226 77 143 4.3 5.2 0.00 0.00 0.00 90 1009.7
20260506050724 77 152 4.3 5.2 0.00 0.00 0.00 90 1009.6
20260506050221 77 150 4.3 6.1 0.00 0.00 0.00 90 1009.7
20260506044712 77 136 6.1 7.8 0.00 0.00 0.00 90 1009.5
20260506044209 77 162 6.1 7.0 0.00 0.00 0.00 90 1009.4
20260506043706 77 86 4.3 7.0 0.00 0.00 0.00 90 1009.3
20260506043204 77 101 6.1 8.7 0.00 0.00 0.00 90 1009.3
20260506042703 77 156 5.2 7.8 0.00 0.00 0.00 90 1009.4
20260506042200 77 168 5.2 7.0 0.00 0.00 0.00 90 1009.3
20260506041659 77 129 4.3 5.2 0.00 0.00 0.00 90 1009.5
20260506041155 77 175 5.2 6.1 0.00 0.00 0.00 90 1009.4
20260506040653 77 122 6.1 7.0 0.00 0.00 0.00 90 1009.5
20260506040149 77 131 4.3 5.2 0.00 0.00 0.00 90 1009.4
20260506035646 77 103 5.2 7.0 0.00 0.00 0.00 90 1009.3
20260506035143 77 147 4.3 8.7 0.00 0.00 0.00 90 1009.1
20260506034640 77 160 4.3 8.7 0.00 0.00 0.00 90 1009.2
20260506034137 77 151 7.0 9.6 0.00 0.00 0.00 91 1009.1
20260506033634 77 152 3.5 3.5 0.00 0.00 0.00 91 1009.3
20260506033131 77 128 7.0 7.8 0.00 0.00 0.00 91 1009.4
20260506032628 77 141 4.3 5.2 0.00 0.00 0.00 90 1009.4
20260506032125 77 143 4.3 6.1 0.00 0.00 0.00 90 1009.1
20260506031623 77 155 3.5 5.2 0.00 0.00 0.00 90 1009.3
20260506031119 77 145 1.7 2.6 0.00 0.00 0.00 90 1009.1
20260506030618 77 139 3.5 3.5 0.00 0.00 0.00 90 1009.1
20260506030115 77 138 4.3 6.1 0.00 0.00 0.00 90 1009.0
20260506025612 77 149 3.5 5.2 0.00 0.00 0.00 90 1009.0
20260506025107 77 149 2.6 3.5 0.00 0.00 0.00 90 1008.9
20260506024605 77 157 2.6 2.6 0.00 0.00 0.00 90 1008.9
20260506024101 77 159 2.6 3.5 0.00 0.00 0.00 89 1008.9
20260506023557 77 149 4.3 5.2 0.00 0.00 0.00 89 1008.9
20260506023055 77 142 2.6 5.2 0.00 0.00 0.00 89 1008.6
20260506022552 77 158 3.5 5.2 0.00 0.00 0.00 89 1008.9
20260506022049 77 155 2.6 2.6 0.00 0.00 0.00 89 1008.6
20260506021547 77 152 3.5 3.5 0.00 0.00 0.00 89 1008.7
20260506021044 77 136 5.2 6.1 0.00 0.00 0.00 89 1008.5
20260506020541 77 169 3.5 3.5 0.00 0.00 0.00 88 1008.3
20260506020039 77 163 5.2 6.1 0.00 0.00 0.00 88 1008.4
20260506015536 77 142 3.5 5.2 0.00 0.00 0.00 88 1008.2